Regional Weather Roundup
Issued by NWS

Home | Current Version | Previous Version | Graphics & Text | Print | Product List | Glossary On
Versions: 1 2 3 4 5 6 7 8 9 10 11 12 13 14 15 16 17 18 19 20 21 22 23 24 25 26 27 28 29 30 31 32 33 34 35 36 37 38 39 40 41 42 43 44 45 46 47 48 49 50
000
ASUS45 KABQ 240910
RWRNM
NEW MEXICO REGIONAL WEATHER ROUNDUP
NATIONAL WEATHER SERVICE ALBUQUERQUE NM
300 AM MDT TUE MAY 24 2016

NOTE: "FAIR" MEANS FEW OR NO CLOUDS BELOW 12,000 FEET AGL WITH NO
       SIGNIFICANT WEATHER OR OBSTRUCTIONS TO VISION.

      THIS PRODUCT IS RELEASED AS TWO VERSIONS.  ONE VERSION NEAR
      THE TOP OF THE HOUR CONTAINING PRELIMINARY DATA FROM ALBUQUERQUE
      AND OTHER STATIONS.  A FINAL VERSION WITH ADDITIONAL DATA IS
      ISSUED ABOUT 10 MINUTES AFTER THE HOUR.

NMZ501-503-504-510>518-241000-
NORTHWEST PLATEAU/NORTHCENTRAL MOUNTAINS

CITY           SKY/WX    TMP DP  RH WIND       PRES   REMARKS
FARMINGTON     FAIR      44  19  36 N6        29.93S
LOS ALAMOS     FAIR      59  15  18 SW7       30.04S
SANTA FE       FAIR      51  23  33 E8        29.99R
TAOS           FAIR      37  18  44 N5        30.05R WCI  34
ANGEL FIRE     FAIR      28  24  84 CALM      30.12S

$$
NMZ402-403-502-505>509-241000-
WESTCENTRAL MOUNTAINS/SOUTHWEST MOUNTAINS

CITY           SKY/WX    TMP DP  RH WIND       PRES   REMARKS
GALLUP         FAIR      46  18  32 CALM      30.01S
GRANTS         FAIR      37  20  50 NW6       30.04S WCI  33
SILVER CITY      N/A     52  23  32 NW7       30.02S

$$
NMZ407-409-411-412-241000-
SOUTHERN DESERTS

CITY           SKY/WX    TMP DP  RH WIND       PRES   REMARKS
LORDSBURG      FAIR      61  21  21 SW9       29.95S
DEMING         FAIR      57  16  20 SW5       29.96S
LAS CRUCES     FAIR      66  15  13 W13       29.95S
HOLLOMAN AFB   FAIR      62  19  19 S13       29.90R
ALAMOGORDO     FAIR      64  18  16 S10       29.92S
T OR C         FAIR      60  23  24 W6        29.93R

$$
NMZ519>523-241000-
CENTRAL VALLEYS/CENTRAL HIGHLANDS

CITY           SKY/WX    TMP DP  RH WIND       PRES   REMARKS
ALBUQUERQUE    FAIR      59  17  19 S7        29.95R
DOUBLE EAGLE   FAIR      45  22  39 NW5       29.98R
MORIARTY ARPT  FAIR      37  20  48 CALM      30.00S
CLINES CORNERS FAIR      50  18  28 W14       30.00F
BELEN          FAIR      53  19  26 CALM      29.94S
SOCORRO        FAIR      55  22  28 CALM      29.92R

$$
NMZ524>526-539-540-241000-
SOUTHCENTRAL MOUNTAINS

CITY           SKY/WX    TMP DP  RH WIND       PRES   REMARKS
RUIDOSO          N/A     57  14  18 SW17      30.06S

$$
NMZ527>531-241000-
NORTHEAST HIGHLANDS/NORTHEAST PLAINS

CITY           SKY/WX    TMP DP  RH WIND       PRES   REMARKS
LAS VEGAS      FAIR      50  23  34 NW7       30.00R
RATON          FAIR      46  27  47 NE7       29.94F
CLAYTON        FAIR      53  47  79 SW6       29.87S

$$
NMZ532>537-241000-
EASTCENTRAL PLAINS

CITY           SKY/WX    TMP DP  RH WIND       PRES   REMARKS
TUCUMCARI      FAIR      55  33  43 SW10      29.81S
CANNON AFB     FAIR      57  39  51 SW13      29.89R
CLOVIS AIRPORT FAIR      61  52  72 S12       29.90R

$$
NMZ028-029-538-241000-
SOUTHEAST PLAINS

CITY           SKY/WX    TMP DP  RH WIND       PRES   REMARKS
ROSWELL        FAIR      59  28  30 S8        29.86R
ARTESIA        FAIR      59  23  25 SW8       29.86S
CARLSBAD       FAIR      64  51  62 S8        29.85S
HOBBS          FAIR      66  66 100 S12       29.90S


$$



USA.gov is the U.S. government's official web portal to all federal, state and local government web resources and services.